Content
SEND FEEDBACK

Daily
Averages
Monthly
Summary
United States of America

BROWNSVILLE, TENNESSEE


Home > North America > United States > Tennessee
Elevation: 369 feet     Latitude: 35 35N     Longitude: 089 15W

WEATHER
 
SELECT A DAY
Number of Records: 208,043;   Date Range: 1/1/95 - 8/30/14
 
SHARE

PRINT THIS DATA

[ ← Previous Day ]
WEATHER ALMANAC - FEBRUARY 13, 2013
[ Next Day → ]
[ °C ]   °F
Weather ElementAverageHighLow
Temperature40.1 °F42.8 °F (1:16 am)36 °F (9:53 pm)
Dewpoint36.9 °F39.9 °F (1:53 am)34 °F (9:53 pm)
Humidity88.3 %97 % (3:53 am)79 % (2:53 pm)
Barometer29.91 in30.02 in (10:53 pm)29.77 in (3:53 am)
Wind Speed7.8 mph15 mph (5:53 am)
Weather ElementAverage
Visibility8.3 mi
Wind DirectionWSW (245.4 °)

Weather ElementTotal
Precipitation0.10 in
Heating Degree Days25.6 (Base 65)
Averaged from 35 records on February 13, 2013
WEATHER CONDITIONS BREAKOUT
WIND DIRECTION BREAKOUT
WEATHER BY HOUR - FEBRUARY 13, 2013
[ °C ]   °F
Local TimeTemperatureDewpointHumidityBarometerVisibilityWind DirectionWind SpeedGust SpeedPrecipitationEventsConditions
1:16 AM42.8 °F39.2 °F87 %29.80 in9.0 miNNE (20°)6.9 mph0.01 inOvercast
1:44 AM42.8 °F39.2 °F87 %29.79 in5.0 miNNE (20°)5.8 mph0.01 inOvercast
1:53 AM41.0 °F39.9 °F96 %29.79 in5.0 miNNE (20°)5.8 mph0.01 inOvercast
2:02 AM41.0 °F39.2 °F93 %29.78 in6.0 miNNE (20°)5.8 mphOvercast
2:53 AM41.0 °F39.0 °F93 %29.78 in3.0 miNNE (20°)6.9 mphOvercast
3:53 AM39.9 °F39.0 °F97 %29.77 in4.0 miNorth (10°)10.4 mph0.02 inRainLight Rain
4:53 AM39.9 °F37.9 °F93 %29.78 in4.0 miNorth (360°)11.5 mph0.01 inRainLight Rain
5:53 AM39.0 °F37.0 °F93 %29.82 in7.0 miNorth (360°)15.0 mph0.01 inOvercast
6:07 AM39.2 °F35.6 °F87 %29.82 in7.0 miNorth (360°)12.7 mph0.00 inRainLight Rain
6:44 AM39.2 °F37.4 °F93 %29.84 in5.0 miNorth (350°)9.2 mph0.01 inRainLight Rain
6:53 AM39.0 °F37.9 °F96 %29.84 in5.0 miNorth (350°)8.1 mph0.01 inRainLight Rain
7:53 AM39.0 °F37.0 °F93 %29.88 in7.0 miNorth (350°)11.5 mph0.01 inRainLight Rain
8:11 AM39.2 °F37.4 °F93 %29.88 in6.0 miNorth (360°)12.7 mph0.00 inOvercast
8:53 AM39.9 °F37.0 °F89 %29.91 in6.0 miNNW (340°)12.7 mph0.00 inOvercast
9:53 AM39.9 °F37.0 °F89 %29.94 in10.0 miNNW (340°)6.9 mphOvercast
10:08 AM41.0 °F37.4 °F87 %29.94 in10.0 miNorth (350°)6.9 mphOvercast
10:24 AM41.0 °F37.4 °F87 %29.94 in10.0 miNNW (330°)4.6 mphOvercast
10:33 AM41.0 °F37.4 °F87 %29.95 in10.0 miNNW (330°)8.1 mphOvercast
10:53 AM41.0 °F37.0 °F86 %29.97 in10.0 miNW (320°)9.2 mphOvercast
11:41 AM41.0 °F35.6 °F81 %29.98 in10.0 miNNW (340°)9.2 mphOvercast
11:53 AM41.0 °F36.0 °F82 %29.98 in10.0 miNW (310°)8.1 mphOvercast
12:53 PM41.0 °F37.0 °F86 %29.97 in10.0 miNNW (330°)8.1 mphOvercast
1:53 PM41.0 °F37.0 °F86 %29.97 in10.0 miNNW (330°)8.1 mphOvercast
2:19 PM41.0 °F35.6 °F81 %29.96 in10.0 miNW (310°)5.8 mphOvercast
2:53 PM42.1 °F36.0 °F79 %29.95 in10.0 miWest (280°)4.6 mphOvercast
3:53 PM42.1 °F36.0 °F79 %29.97 in10.0 miWest (260°)5.8 mphOvercast
4:53 PM42.1 °F36.0 °F79 %29.97 in10.0 miSSW (210°)3.5 mphOvercast
5:53 PM42.1 °F37.0 °F82 %29.98 in10.0 miSW (230°)5.8 mphOvercast
6:53 PM41.0 °F36.0 °F82 %30.00 in10.0 miSSW (210°)6.9 mphOvercast
7:53 PM37.9 °F35.1 °F89 %30.01 in10.0 miSSW (200°)4.6 mphMostly Cloudy
8:04 PM37.4 °F35.6 °F93 %30.00 in10.0 miSouth (190°)4.6 mphScattered Clouds
8:53 PM37.9 °F35.1 °F89 %30.01 in10.0 miSouth (180°)4.6 mphClear
9:53 PM36.0 °F34.0 °F93 %30.01 in10.0 miSSW (200°)6.9 mphClear
10:53 PM37.0 °F35.1 °F93 %30.02 in10.0 miSSW (200°)6.9 mphClear
11:53 PM37.0 °F34.0 °F89 %30.02 in10.0 miSSW (200°)8.1 mphClear
Hourly data recorded from KMKL, located miles away from Brownsville, Tennessee







STORIES FROM OUR PARTNERS